Regional Weather Roundup
Issued by NWS

Home | Current Version | Previous Version | Graphics & Text | Print | Product List | Glossary On
Versions: 1 2 3 4 5 6 7 8 9 10 11 12 13 14 15 16 17 18 19 20 21 22 23 24 25 26 27 28 29 30 31 32 33 34 35 36 37 38 39 40 41 42 43 44 45 46 47 48 49 50
000
ASUS44 KMEG 311210
RWRTN
TENNESSEE HOURLY STATE WEATHER ROUNDUP
NATIONAL WEATHER SERVICE MEMPHIS TN
600 AM CST SAT JAN 31 2015

TNZ002-004-019-021-049-052-054-088>092-311300-
WEST TENNESSEE

CITY           SKY/WX    TMP DP  RH WIND       PRES   REMARKS
MEMPHIS INTL   CLOUDY    39  21  48 SE6       30.36S WCI  35
NWS MEMPHIS      N/A     35 N/A N/A MISG        N/A
JACKSON        CLOUDY    30  23  75 CALM      30.38R
DYERSBURG      MOCLDY    30  14  51 CALM      30.41R
UNION CITY     CLEAR     28  25  86 SW3       30.38R
PARIS          CLEAR     25  19  80 E5        30.36F WCI  19
LEXINGTON      CLEAR     27  21  80 SW7       30.36R WCI  19
SAVANNAH       CLEAR     28  25  86 CALM      30.37R
$$

TNZ008-025-027-028-033-062-065-066-311300-
NORTH MIDDLE TENNESSEE

CITY           SKY/WX    TMP DP  RH WIND       PRES   REMARKS
NASHVILLE      PTCLDY    24  21  88 CALM      30.38S
CLARKSVILLE    PTCLDY    24  21  88 CALM      30.37S
SMYRNA         MOCLDY    23  21  92 CALM      30.40S
COOKEVILLE     CLEAR     18  16  93 CALM      30.36S
CROSSVILLE     CLEAR     19  15  84 CALM      30.32R
$$

TNZ061-075-076-078-094-096-097-311300-
SOUTH MIDDLE TENNESSEE

CITY           SKY/WX    TMP DP  RH WIND       PRES   REMARKS
FAYETTEVILLE   CLEAR     27  19  74 MISG      30.35R
TULLAHOMA      CLEAR     23  18  80 CALM      30.35S
WINCHESTER     CLEAR     21  19  93 CALM      30.36R
MCMINNVILLE    CLEAR     21  19  93 CALM      30.35S
COLUMBIA       CLEAR    N/A N/A N/A CALM      30.36R
SHELBYVILLE    CLEAR     25  21  86 CALM      30.37F
$$

TNZ017-018-042-046-047-311300-
NORTHEAST TENNESSEE

CITY           SKY/WX    TMP DP  RH WIND       PRES   REMARKS
TRI CITIES     PTCLDY    17  13  84 CALM      30.36R
ELIZABETHTON   SUNNY     16  12  86 CALM      30.35R
$$

TNZ012-013-036-069-073-074-311300-
CENTRAL EAST TENNESSEE

CITY           SKY/WX    TMP DP  RH WIND       PRES   REMARKS
KNOXVILLE      PTCLDY    21  17  84 E5        30.36S WCI  15
OAK RIDGE      CLEAR     22  18  85 CALM      30.39S
GATLINBURG     SUNNY     16  14  93 CALM      30.37S
MORRISTOWN     SUNNY     19  16  86 NE3       30.36R
$$

TNZ083-085-099-311300-
SOUTHEAST TENNESSEE

CITY           SKY/WX    TMP DP  RH WIND       PRES   REMARKS
CHATTANOOGA    MOCLDY    31  20  63 N8        30.38R WCI  23
$$

SKY/WX REPORTED AS FAIR MEANS FEW OR NO CLOUDS BELOW
12 THOUSAND FEET.



USA.gov is the U.S. government's official web portal to all federal, state and local government web resources and services.